Back to catalog

RADUGA 4

AliveMilitaryGEO
NORAD 10987·PAYLOAD·🇷🇺 Russia

Launched Jul 18, 1978 from Baikonur Cosmodrome

Loading…

TLE

FreshSource: Space-Track

Epoch: Sep 14, 2026, 14:07 UTC

1 10987U 78073A   26257.58827440 -.00000002  00000-0  00000-0 0  9993
2 10987   4.5648 277.5206 0010691  30.5701 323.7767  1.00194947120492

Track RADUGA 4 in real time with AllMySat

Download on the App Store